MOST

Last updated on Sun Jul 06 2025 00:03:28 GMT+0000 (Coordinated Universal Time)

1 27843U 03031D 25186.56536202 .00000059 00000+0 47162-4 0 9999 2 27843 98.7051 194.1182 0010073 166.7391 193.4052 14.21214826141478
UTC large
Height (km)
Speed (km/s)
/
Latitude / Longitude
Inclination (degrees)
Orbital Period (minutes)
Azimuth
Elevation
Range (km)
Doppler Factor

Next 0 passes for location: London (51.5072 / 0.1276)

Sorry there are no passes over London.